Location: Newark
(50.0306°N, 2.3272°E)
Time: 08:55:54
(UTC+00:00)

Tiros 1 despin weight - All Passes

Search period start: 11 December 2019 00:00
Search period end: 21 December 2019 00:00
Orbit: 594 x 642 km, 48.2° (Epoch: 10 December)

Date Brightness Start Highest point End Pass type
(mag) Time Alt. Az. Time Alt. Az. Time Alt. Az.
11 Dec - 03:29:34 10° SSE 03:30:41 11° SE 03:31:49 10° ESE visible
11 Dec - 05:07:12 10° SW 05:11:20 36° SSE 05:15:25 10° E visible
11 Dec - 06:48:05 10° WSW 06:52:34 68° S 06:56:59 10° E visible
11 Dec - 08:29:33 10° W 08:33:57 59° SSW 08:38:18 10° ESE daylight
11 Dec - 10:11:21 10° W 10:15:00 25° SSW 10:18:36 10° SSE daylight
12 Dec - 03:43:40 10° S 03:46:49 19° SE 03:49:57 10° E visible
12 Dec - 05:23:21 10° SW 05:27:43 50° SSE 05:32:03 10° E visible
12 Dec - 07:04:36 10° W 07:09:05 71° S 07:13:30 10° E daylight
12 Dec - 08:46:08 10° W 08:50:24 45° SSW 08:54:37 10° SE daylight
12 Dec - 10:28:32 10° WSW 10:31:12 16° SW 10:33:50 10° S daylight
13 Dec - 03:59:09 10° SSW 04:03:04 29° SSE 04:06:56 10° E visible
13 Dec - 05:39:43 10° WSW 05:44:12 63° S 05:48:37 10° E visible
13 Dec - 07:21:08 10° W 07:25:36 66° S 07:29:59 10° ESE daylight
13 Dec - 09:02:48 10° W 09:06:46 32° SSW 09:10:41 10° SE daylight
14 Dec - 02:36:17 10° S 02:38:39 14° SE 02:41:00 10° ESE visible
14 Dec - 04:15:07 10° SW 04:19:24 41° SSE 04:23:39 10° E visible
14 Dec - 05:56:12 10° W 06:00:42 70° S 06:05:09 10° E visible
14 Dec - 07:37:42 10° W 07:42:05 54° SSW 07:46:24 10° ESE daylight
14 Dec - 09:19:41 10° W 09:23:01 21° SW 09:26:20 10° SSE daylight
15 Dec - 02:51:15 10° SSW 02:54:49 23° SE 02:58:23 10° E visible
15 Dec - 04:31:22 10° WSW 04:35:50 56° SSE 04:40:14 10° E visible
15 Dec - 06:12:43 10° W 06:17:14 70° S 06:21:40 10° ESE visible
15 Dec - 07:54:19 10° W 07:58:30 39° SSW 08:02:37 10° SE daylight
15 Dec - 09:37:17 10° WSW 09:39:10 13° SW 09:41:03 10° SSW daylight
16 Dec - 03:06:59 10° SW 03:11:07 34° SSE 03:15:12 10° E visible
16 Dec - 04:47:48 10° WSW 04:52:19 67° S 04:56:47 10° E visible
16 Dec - 06:29:17 10° W 06:33:44 61° SSW 06:38:08 10° ESE visible
16 Dec - 08:11:03 10° W 08:14:49 27° SSW 08:18:33 10° SSE daylight
17 Dec - 01:43:34 10° S 01:46:37 18° SE 01:49:39 10° E night (unlit)
17 Dec - 03:23:05 10° SW 03:27:30 48° SSE 03:31:51 10° E visible
17 Dec - 05:04:19 10° W 05:08:51 71° S 05:13:19 10° E visible
17 Dec - 06:45:51 10° W 06:50:12 48° SSW 06:54:28 10° SE visible
17 Dec - 08:28:07 10° W 08:31:02 17° SW 08:33:55 10° S daylight
18 Dec - 01:58:58 10° SSW 02:02:51 27° SSE 02:06:42 10° E night (unlit)
18 Dec - 03:39:26 10° WSW 03:43:57 61° SSE 03:48:25 10° E visible
18 Dec - 05:20:51 10° W 05:25:22 67° S 05:29:49 10° ESE visible
18 Dec - 07:02:30 10° W 07:06:35 34° SSW 07:10:35 10° SE visible
19 Dec - 00:36:20 10° SSE 00:38:27 13° SE 00:40:35 10° ESE night (unlit)
19 Dec - 02:14:52 10° SW 02:19:10 40° SSE 02:23:26 10° E night (unlit)
19 Dec - 03:55:54 10° WSW 04:00:28 70° S 04:04:58 10° E visible
19 Dec - 05:37:24 10° W 05:41:52 56° SSW 05:46:14 10° ESE visible
19 Dec - 07:19:20 10° W 07:22:51 23° SW 07:26:19 10° SSE daylight
20 Dec - 00:51:06 10° SSW 00:54:37 22° SE 00:58:06 10° E night (unlit)
20 Dec - 02:31:05 10° WSW 02:35:36 54° SSE 02:40:02 10° E visible
20 Dec - 04:12:25 10° W 04:16:59 71° S 04:21:29 10° E visible
20 Dec - 05:54:00 10° W 05:58:17 42° SSW 06:02:30 10° SE visible
20 Dec - 07:36:43 10° WSW 07:39:01 14° SW 07:41:17 10° S daylight
